Flag for Croatia Weather past 2 weeks in Osijek, Croatia

34 °F

Partly cloudy.

Feels Like: 27 °F
Forecast: 30 / 39 °F
Wind: 8 mph from North

Location: Osijek / Cepin

Current Time: Nov 27, 2015 at 6:17:44 AM

Latest Report: Nov 27, 2015 at 6:00 AM

Visibility: N/A

Pressure: 29.98 "Hg

Humidity: 87%

Dew point: 30 °F

Location of OsijekLocation

Historic Weather in Osijek — Graph


Osijek temperature yesterday

Maximum temperature yesterday: 70 °F (at 10:00 AM)
Minimum temperature yesterday: 34 °F (at 6:00 AM)
Average temperature yesterday: 37 °F

Past Weeks' High & Low Weather Summary

High73 °F (Nov 12, 2:30 PM)100% (Nov 12, 7:00 AM)30.36 "Hg (Nov 12, 7:00 AM)
Low32 °F (Nov 23, 7:00 AM)27% (Nov 26, 10:00 AM)29.30 "Hg (Nov 21, 6:30 AM)
Average48 °F76%30.01 "Hg
* Reported Nov 11 10:00 PM — Nov 26 10:00 PM, Osijek, Weather by CustomWeather, © 2015

Note: Actual official high and low records may vary slightly from our data, if they occured in-between our weather recording intervals... More about our weather records


Osijek weather history for previous 24 hours

Time TempWeatherWind HumidityBarometerVisibility
10:00 PM
Thu, Nov 26
37 °FPassing clouds.7 mph87%29.92 "HgN/A
9:30 PM37 °FPassing clouds.7 mph81%29.92 "HgN/A
9:00 PM37 °FPassing clouds.7 mph81%29.92 "HgN/A
8:30 PM37 °FPassing clouds.7 mph87%29.92 "HgN/A
8:00 PM37 °FPassing clouds.7 mph87%29.89 "HgN/A
7:30 PM37 °FPassing clouds.6 mph87%29.89 "HgN/A
7:00 PM37 °FPassing clouds.5 mph87%29.89 "HgN/A
6:30 PM37 °FPassing clouds.6 mph81%29.86 "HgN/A
6:00 PM37 °FPassing clouds.3 mph81%29.86 "HgN/A
5:30 PM37 °FPassing clouds.6 mph81%29.83 "HgN/A
5:00 PM37 °FPassing clouds.7 mph81%29.83 "HgN/A
4:30 PM37 °FPassing clouds.6 mph75%29.83 "HgN/A
4:00 PM37 °FScattered clouds.6 mph75%29.83 "HgN/A
3:30 PM37 °FScattered clouds.8 mph75%29.80 "HgN/A
3:00 PM37 °FScattered clouds.7 mph75%29.80 "HgN/A
2:30 PM37 °FMore clouds than sun.9 mph75%29.80 "HgN/A
2:00 PM37 °FMore clouds than sun.9 mph75%29.77 "HgN/A
1:30 PM37 °FMore clouds than sun.10 mph75%29.77 "HgN/A
1:00 PM37 °FMostly cloudy.10 mph81%29.77 "HgN/A
12:30 PM37 °FMore clouds than sun.10 mph81%29.77 "HgN/A
12:00 PM37 °FMore clouds than sun.10 mph81%29.77 "HgN/A
11:30 AM36 °FMore clouds than sun.8 mph87%29.77 "HgN/A
11:00 AM36 °FLight snow. Mostly cloudy.10 mph93%29.77 "Hg4 mi
10:30 AM36 °FMore clouds than sun.10 mph93%29.77 "Hg4 mi
10:00 AM70 °FFog.13 mph27%29.74 "Hg3 mi
9:30 AM36 °FFog.14 mph93%29.74 "Hg3 mi
9:00 AM36 °FFog.13 mph93%29.74 "Hg2 mi
8:30 AM34 °FLight rain. Fog.14 mph100%29.71 "Hg2 mi
8:00 AM34 °FFog.12 mph100%29.71 "Hg2 mi
7:30 AM34 °FFog.12 mph100%29.71 "Hg2 mi
7:00 AM34 °FFog.10 mph100%29.71 "Hg2 mi
6:30 AM34 °FFog.13 mph100%29.71 "Hg2 mi
6:00 AM34 °FFog.10 mph100%29.68 "Hg2 mi
Weather by CustomWeather, © 2015

See weather overviewHow to use our weather pages